Hourly Weather Roundup
Issued by NWS Central Illinois

Home | Current Version | Previous Version | Text Only | Print | Product List | Glossary On
Versions: 1 2 3 4 5 6 7 8 9 10 11 12 13 14 15 16 17 18 19 20 21 22 23 24 25 26 27 28 29 30 31 32 33 34 35 36 37 38 39 40 41 42 43 44 45 46 47 48 49 50
201
NZUS43 KILX 192210
HWRILX

AREA WEATHER ROUNDUP
NATIONAL WEATHER SERVICE, LINCOLN IL
400 PM CST SUN FEB 19 2017


CITY           SKY/WX    TMP DP  RH WIND       PRES   REMARKS
BLOOMINGTON    SUNNY     66  42  41 S6        30.06S
CHAMPAIGN      SUNNY     67  43  41 SW5       30.06F
DECATUR        SUNNY     67  46  47 SE9       30.05F
EFFINGHAM      SUNNY     62  53  72 E7        30.10S
FLORA          PTSUNNY   59  52  78 S8        30.10S HAZE
GALESBURG      SUNNY     69  46  43 S7        29.99F
JACKSONVILLE   SUNNY     70  47  43 SE7       30.00F
LACON          MOSUNNY   69  42  37 S9        30.01F
LAWRENCEVILLE  SUNNY     57  49  74 S8        30.11S
LITCHFIELD     SUNNY     63  51  66 S9        30.05F
$$


CITY           SKY/WX    TMP DP  RH WIND       PRES   REMARKS
LINCOLN        SUNNY     67  48  50 S7        30.03F
MACOMB         SUNNY     71  44  38 S10       30.01F
MATTOON        SUNNY     60  51  72 S9        30.08R HAZE
MT CARMEL AP   PTSUNNY   55  49  78 S7        30.11S HAZE
OLNEY-NOBLE AP CLOUDY    54  54 100 S5        30.11S FOG
PARIS          SUNNY     65  48  55 SW5       30.08S
PEORIA         SUNNY     68  45  43 S9        30.02F
PONTIAC        SUNNY     68  40  35 S6        30.05S
RANTOUL        SUNNY     68  45  44 S6        30.06F
SPRINGFIELD    SUNNY     70  48  45 SE12      30.02F
TAYLORVILLE    SUNNY     65  49  55 SE9       30.05F
$$

...REGIONAL REPORTS...


CITY           SKY/WX    TMP DP  RH WIND       PRES   REMARKS
CHICAGO O`HARE MOSUNNY   65  32  29 E10       30.04S
KANKAKEE       SUNNY     64  45  50 CALM      30.07S
MOLINE         SUNNY     72  38  29 S12       29.97S
MOUNT STERLING SUNNY     71  46  41 SE8       29.98F
MOUNT VERNON   SUNNY     61  53  75 SE6       30.09S
PITTSFIELD     MOSUNNY   73  48  42 SE9       30.00F
QUINCY         MOSUNNY   71  47  42 S10       29.97F
ROCKFORD       PTSUNNY   65  40  39 S9        30.04F
$$


CITY           SKY/WX    TMP DP  RH WIND       PRES   REMARKS
BURLINGTON     SUNNY     70  48  45 S12       29.96F
CEDAR RAPIDS   MOSUNNY   69  44  40 SE8       29.93F
DES MOINES     CLOUDY    72  47  40 S17G24    29.88F
KIRKSVILLE     PTSUNNY   71  48  43 SE13      29.94F
OTTUMWA        CLOUDY    72  46  39 S16       29.91F
ST LOUIS       PTSUNNY   71  50  47 SE13      30.02F
$$


CITY           SKY/WX    TMP DP  RH WIND       PRES   REMARKS
TERRE HAUTE    SUNNY     64  47  53 S7        30.08S
EVANSVILLE     MOSUNNY   58  49  72 SE5       30.12F
INDIANAPOLIS   MOSUNNY   64  43  46 W5        30.09R
LAFAYETTE      SUNNY     63  43  48 CALM      30.07F
MADISON        PTSUNNY   61  36  39 S10       30.02S
MILWAUKEE      PTSUNNY   51  31  46 SE7       30.06S
$$






USA.gov is the U.S. government's official web portal to all federal, state and local government web resources and services.